EN

Hourly Weather Althuttendorf

Today, 23 January, Saturday

Time Temperature Precipitation Wind Pressure Humidity
00:00 +2°C° 0 mm 1 mps 739 mmHg 89%
01:00 +2°C° 0 mm 1 mps 740 mmHg 89%
02:00 +2°C° 0 mm 1 mps 740 mmHg 89%
03:00 +2°C° 0 mm 1 mps 740 mmHg 89%
04:00 +2°C° 0 mm 1 mps 739 mmHg 88%
05:00 +2°C° 0 mm 1 mps 739 mmHg 88%
06:00 +1°C° 0 mm 2 mps 739 mmHg 88%
07:00 +1°C° 0 mm 2 mps 739 mmHg 88%
08:00 +1°C° 0.1 mm 2 mps 739 mmHg 89%
09:00 +1°C° 0.1 mm 2 mps 738 mmHg 89%
10:00 0°C° 0.1 mm 3 mps 738 mmHg 90%
11:00 -1°C° 1 mm 4 mps 738 mmHg 92%
12:00 -1°C° 1 mm 5 mps 737 mmHg 93%
13:00 -2°C° 1 mm 6 mps 737 mmHg 94%
14:00 -2°C° 1.9 mm 6 mps 736 mmHg 95%
15:00 -3°C° 1.9 mm 6 mps 736 mmHg 96%
16:00 -3°C° 1.9 mm 6 mps 736 mmHg 98%
17:00 -3°C° 0.6 mm 6 mps 736 mmHg 97%
18:00 -2°C° 0.6 mm 6 mps 737 mmHg 96%
19:00 -2°C° 0.6 mm 6 mps 737 mmHg 96%
20:00 -1°C° 0.1 mm 5 mps 737 mmHg 96%
21:00 -1°C° 0.1 mm 4 mps 737 mmHg 96%
22:00 -1°C° 0.1 mm 4 mps 738 mmHg 96%
23:00 -1°C° 0 mm 3 mps 738 mmHg 96%

Tomorrow, 24 January, Sunday

Time Temperature Precipitation Wind Pressure Humidity
00:00 -1°C° 0 mm 3 mps 738 mmHg 95%
01:00 -2°C° 0 mm 2 mps 739 mmHg 95%
02:00 -2°C° 0 mm 2 mps 739 mmHg 94%
03:00 -2°C° 0 mm 2 mps 739 mmHg 93%
04:00 0°C° 0 mm 1 mps 739 mmHg 92%
05:00 -1°C° 0 mm 1 mps 739 mmHg 92%
06:00 -1°C° 0 mm 1 mps 739 mmHg 91%
07:00 -1°C° 0 mm 1 mps 740 mmHg 91%
08:00 0°C° 0 mm 1 mps 740 mmHg 90%
09:00 -2°C° 0 mm 2 mps 740 mmHg 88%
10:00 -1°C° 0 mm 2 mps 740 mmHg 87%
11:00 +1°C° 0 mm 2 mps 740 mmHg 86%
12:00 +1°C° 0 mm 2 mps 740 mmHg 86%
13:00 +2°C° 0 mm 2 mps 740 mmHg 85%
14:00 +1°C° 0 mm 2 mps 740 mmHg 87%
15:00 +1°C° 0 mm 2 mps 740 mmHg 89%
16:00 +2°C° 0 mm 1 mps 740 mmHg 91%
17:00 +1°C° 0.2 mm 1 mps 740 mmHg 93%
18:00 +1°C° 0.2 mm 1 mps 740 mmHg 95%
19:00 +1°C° 0.2 mm 1 mps 741 mmHg 98%
20:00 -1°C° 0.2 mm 2 mps 741 mmHg 97%
21:00 -1°C° 0.2 mm 2 mps 741 mmHg 97%
22:00 -1°C° 0.2 mm 3 mps 741 mmHg 97%
23:00 -1°C° 0 mm 3 mps 741 mmHg 96%

Day after tomorrow, 25 January, Monday

Time Temperature Precipitation Wind Pressure Humidity
00:00 -1°C° 0 mm 3 mps 741 mmHg 94%
01:00 -2°C° 0 mm 3 mps 742 mmHg 93%
02:00 -2°C° 0 mm 3 mps 742 mmHg 93%
03:00 -4°C° 0 mm 3 mps 742 mmHg 93%
04:00 -4°C° 0 mm 4 mps 742 mmHg 92%
05:00 -4°C° 0 mm 3 mps 742 mmHg 93%
06:00 -5°C° 0 mm 3 mps 743 mmHg 93%
07:00 -5°C° 0 mm 3 mps 743 mmHg 94%
08:00 -4°C° 0 mm 4 mps 743 mmHg 92%
09:00 -3°C° 0 mm 4 mps 744 mmHg 89%
10:00 -3°C° 0 mm 4 mps 744 mmHg 87%
11:00 -2°C° 0 mm 5 mps 744 mmHg 84%
12:00 -1°C° 0 mm 5 mps 744 mmHg 81%
13:00 -1°C° 0 mm 5 mps 745 mmHg 78%
14:00 -1°C° 0 mm 5 mps 745 mmHg 78%
15:00 -1°C° 0 mm 4 mps 745 mmHg 78%
16:00 -1°C° 0 mm 4 mps 745 mmHg 78%
17:00 -2°C° 0 mm 4 mps 746 mmHg 79%
18:00 -2°C° 0 mm 4 mps 746 mmHg 80%
19:00 -4°C° 0 mm 5 mps 747 mmHg 81%
20:00 -3°C° 0 mm 4 mps 747 mmHg 83%
21:00 -3°C° 0 mm 4 mps 747 mmHg 84%
22:00 -3°C° 0 mm 4 mps 747 mmHg 85%
23:00 -3°C° 0 mm 4 mps 748 mmHg 85%

26 January, Tuesday

Time Temperature Precipitation Wind Pressure Humidity
00:00 -4°C° 0 mm 3 mps 748 mmHg 86%
01:00 -4°C° 0 mm 3 mps 748 mmHg 87%
02:00 -4°C° 0 mm 3 mps 748 mmHg 87%
03:00 -4°C° 0 mm 3 mps 748 mmHg 88%
04:00 -4°C° 0 mm 3 mps 749 mmHg 88%
05:00 -4°C° 0 mm 3 mps 749 mmHg 89%
06:00 -4°C° 0 mm 3 mps 749 mmHg 89%
07:00 -4°C° 0 mm 3 mps 749 mmHg 90%
08:00 -4°C° 0 mm 4 mps 750 mmHg 88%
09:00 -3°C° 0 mm 4 mps 750 mmHg 86%
10:00 -3°C° 0 mm 4 mps 750 mmHg 84%
11:00 -2°C° 0 mm 4 mps 750 mmHg 82%
12:00 -1°C° 0 mm 4 mps 750 mmHg 79%
13:00 -1°C° 0 mm 4 mps 750 mmHg 77%
14:00 -1°C° 0 mm 4 mps 751 mmHg 78%
15:00 -1°C° 0 mm 3 mps 751 mmHg 80%
16:00 -1°C° 0 mm 3 mps 751 mmHg 81%
17:00 -2°C° 0 mm 3 mps 751 mmHg 84%
18:00 -2°C° 0 mm 3 mps 751 mmHg 87%
19:00 -4°C° 0 mm 3 mps 751 mmHg 89%
20:00 -2°C° 0 mm 3 mps 750 mmHg 90%
21:00 -1°C° 0 mm 3 mps 750 mmHg 91%
22:00 -1°C° 0 mm 3 mps 750 mmHg 92%
23:00 -1°C° 0 mm 3 mps 749 mmHg 91%

27 January, Wednesday

Time Temperature Precipitation Wind Pressure Humidity
00:00 -1°C° 0 mm 3 mps 749 mmHg 90%
01:00 0°C° 0 mm 3 mps 749 mmHg 89%
02:00 -1°C° 0 mm 3 mps 748 mmHg 90%
03:00 -1°C° 0 mm 3 mps 748 mmHg 92%
04:00 -2°C° 0 mm 2 mps 747 mmHg 93%
05:00 -2°C° 0 mm 2 mps 747 mmHg 93%
06:00 -2°C° 0 mm 2 mps 747 mmHg 94%
07:00 -2°C° 0 mm 2 mps 746 mmHg 94%
08:00 0°C° 0 mm 1 mps 747 mmHg 92%
09:00 +1°C° 0 mm 1 mps 747 mmHg 91%
10:00 +1°C° 0 mm 1 mps 747 mmHg 89%
11:00 +2°C° 0 mm 1 mps 747 mmHg 87%
12:00 +1°C° 0 mm 0 mps 747 mmHg 86%
13:00 +2°C° 0 mm 0 mps 748 mmHg 84%
14:00 +3°C° 0 mm 1 mps 748 mmHg 86%
15:00 +2°C° 0 mm 1 mps 749 mmHg 88%
16:00 +2°C° 0 mm 1 mps 749 mmHg 89%
17:00 +1°C° 0 mm 1 mps 750 mmHg 90%
18:00 -1°C° 0 mm 2 mps 750 mmHg 91%
19:00 -2°C° 0 mm 2 mps 751 mmHg 92%
20:00 -2°C° 0 mm 2 mps 751 mmHg 92%
21:00 -1°C° 0 mm 2 mps 751 mmHg 92%
22:00 -1°C° 0 mm 2 mps 752 mmHg 92%
23:00 -1°C° 0 mm 2 mps 752 mmHg 92%

28 January, Thursday

Time Temperature Precipitation Wind Pressure Humidity
00:00 -1°C° 0 mm 2 mps 751 mmHg 93%
01:00 -1°C° 0 mm 2 mps 751 mmHg 93%
02:00 -2°C° 0.1 mm 2 mps 751 mmHg 95%
03:00 -2°C° 0.1 mm 2 mps 751 mmHg 96%
04:00 0°C° 0.1 mm 1 mps 750 mmHg 98%
05:00 -2°C° 0.1 mm 2 mps 750 mmHg 98%
06:00 -1°C° 0.1 mm 2 mps 749 mmHg 98%
07:00 -1°C° 0.1 mm 2 mps 749 mmHg 98%
08:00 -1°C° 0.3 mm 2 mps 748 mmHg 98%
09:00 0°C° 0.3 mm 3 mps 748 mmHg 98%
10:00 0°C° 0.3 mm 3 mps 747 mmHg 98%
11:00 +1°C° 0.7 mm 3 mps 747 mmHg 98%
12:00 +1°C° 0.7 mm 3 mps 746 mmHg 98%
13:00 +1°C° 0.7 mm 3 mps 745 mmHg 98%
14:00 +1°C° 0.9 mm 3 mps 745 mmHg 98%
15:00 +1°C° 0.9 mm 3 mps 745 mmHg 98%
16:00 +1°C° 0.9 mm 3 mps 744 mmHg 98%
17:00 +1°C° 0.7 mm 3 mps 744 mmHg 98%
18:00 +2°C° 0.7 mm 2 mps 745 mmHg 98%
19:00 +2°C° 0.7 mm 2 mps 745 mmHg 98%
Show more